TimeEDT,TemperatureF,Dew PointF,Humidity,Sea Level PressureIn,VisibilityMPH,Wind Direction,Wind SpeedMPH,Gust SpeedMPH,PrecipitationIn,Events,Conditions,WindDirDegrees,DateUTC
12:51 AM,60.1,54.0,80,30.15,10.0,Calm,Calm,-,N/A,,Clear,0,2013-08-24 04:51:00
1:51 AM,57.9,54.0,87,30.16,10.0,Calm,Calm,-,N/A,,Clear,0,2013-08-24 05:51:00
2:51 AM,57.9,54.0,87,30.18,10.0,Calm,Calm,-,N/A,,Clear,0,2013-08-24 06:51:00
3:51 AM,57.0,54.0,89,30.20,10.0,Calm,Calm,-,N/A,,Clear,0,2013-08-24 07:51:00
4:51 AM,55.9,53.1,90,30.21,10.0,NNE,3.5,-,N/A,,Partly Cloudy,20,2013-08-24 08:51:00
5:51 AM,57.9,52.0,81,30.23,10.0,NE,4.6,-,N/A,,Partly Cloudy,50,2013-08-24 09:51:00
6:51 AM,57.9,52.0,81,30.26,10.0,NE,5.8,-,N/A,,Clear,50,2013-08-24 10:51:00
7:51 AM,63.0,54.0,72,30.28,10.0,NNE,5.8,-,N/A,,Partly Cloudy,30,2013-08-24 11:51:00
8:51 AM,66.0,52.0,60,30.30,10.0,NE,6.9,-,N/A,,Partly Cloudy,40,2013-08-24 12:51:00
9:51 AM,70.0,53.1,55,30.31,10.0,ENE,8.1,-,N/A,,Clear,70,2013-08-24 13:51:00
10:51 AM,71.1,53.1,53,30.32,10.0,NE,5.8,-,N/A,,Clear,40,2013-08-24 14:51:00
11:51 AM,73.0,52.0,48,30.31,10.0,Variable,6.9,-,N/A,,Clear,0,2013-08-24 15:51:00
12:51 PM,75.0,53.1,46,30.30,10.0,ENE,6.9,-,N/A,,Clear,60,2013-08-24 16:51:00
1:51 PM,77.0,54.0,45,30.30,9.0,North,3.5,-,N/A,,Clear,360,2013-08-24 17:51:00
2:51 PM,79.0,54.0,42,30.30,10.0,NE,8.1,-,N/A,,Clear,50,2013-08-24 18:51:00
3:18 PM,78.8,53.6,42,30.29,1.8,East,9.2,-,N/A,,Haze,80,2013-08-24 19:18:00
3:27 PM,78.8,53.6,42,30.29,4.0,NE,9.2,-,N/A,,Haze,50,2013-08-24 19:27:00
3:51 PM,80.1,53.1,39,30.29,10.0,East,9.2,-,N/A,,Clear,90,2013-08-24 19:51:00
4:51 PM,80.1,46.9,31,30.29,10.0,Variable,4.6,-,N/A,,Clear,0,2013-08-24 20:51:00
5:51 PM,79.0,48.0,34,30.30,10.0,Variable,6.9,-,N/A,,Clear,0,2013-08-24 21:51:00
6:51 PM,75.9,48.9,38,30.30,10.0,ESE,6.9,-,N/A,,Clear,110,2013-08-24 22:51:00
7:51 PM,73.0,50.0,44,30.31,10.0,SSE,3.5,-,N/A,,Clear,150,2013-08-24 23:51:00
8:51 PM,66.0,53.1,63,30.33,10.0,Calm,Calm,-,N/A,,Clear,0,2013-08-25 00:51:00
9:51 PM,63.0,54.0,72,30.34,10.0,Calm,Calm,-,N/A,,Clear,0,2013-08-25 01:51:00
10:51 PM,59.0,54.0,83,30.35,10.0,NNW,3.5,-,N/A,,Clear,340,2013-08-25 02:51:00
11:51 PM,57.9,54.0,87,30.36,10.0,Calm,Calm,-,N/A,,Clear,0,2013-08-25 03:51:00